Regional Weather Roundup
Issued by NWS Mobile, AL

Home | Current Version | Previous Version | Text Only | Print | Product List | Glossary On
Versions: 1 2 3 4 5 6 7 8 9 10 11 12 13 14 15 16 17 18 19 20 21 22 23 24 25 26 27 28 29 30 31 32 33 34 35 36 37 38 39 40 41 42 43 44 45 46 47 48 49 50
000
ASUS44 KMOB 281812
RWRMOB
REGIONAL WEATHER ROUNDUP
NATIONAL WEATHER SERVICE MOBILE AL
100 PM CDT WED SEP 28 2016

NOTE: "FAIR" INDICATES FEW OR NO CLOUDS BELOW 12,000 FEET WITH NO
      SIGNIFICANT WEATHER AND/OR OBSTRUCTIONS TO VISIBILITY.

  * THESE STATIONS ARE PART OF THE UNIVERSITY OF SOUTH ALABAMA
    MESONET AND ARE NOT UNDER NWS OR FAA QUALITY CONTROL.

ALZ061>064-281900-
COASTAL ALABAMA

CITY           SKY/WX    TMP DP  RH WIND       PRES   REMARKS
MOBILE REG APT MOSUNNY   86  66  51 NW8       29.99F
6HR MIN TEMP:  69; 6HR MAX TEMP:  86;

BROOKLEY FIELD MOSUNNY   88  68  51 VRB7      29.99F
6HR MIN TEMP:  70; 6HR MAX TEMP:  88;

USA CAMPUS*    NOT AVBL
DOG RIVER*     NOT AVBL


CITY           SKY/WX    TMP DP  RH WIND       PRES   REMARKS
MOUNT VERNON*  NOT AVBL
SARALAND*      NOT AVBL
BAY MINETTE*   NOT AVBL
LOXLEY*        NOT AVBL
ROBERTSDALE*   NOT AVBL
FAIRHOPE*      NOT AVBL
ELBERTA*       NOT AVBL
FOLEY*         NOT AVBL
GRAND BAY*     NOT AVBL
DAUPHIN ISLND* NOT AVBL
BON SCOUR NWR* NOT AVBL
GULF SHORES    MOSUNNY   87  72  60 NW7G20    29.97F

$$

ALZ051>060-281900-
INTERIOR SOUTHWEST AND SOUTH CENTRAL ALABAMA

CITY           SKY/WX    TMP DP  RH WIND       PRES   REMARKS
GREENVILLE     SUNNY     90  59  35 VRB7      29.96
6HR MIN TEMP:  69; 6HR MAX TEMP:  90;

EVERGREEN      SUNNY     87  66  49 SW9       29.97F
6HR MIN TEMP:  68; 6HR MAX TEMP:  88;

CASTLEBERRY*   NOT AVBL
ATMORE*        NOT AVBL
DIXIE*         NOT AVBL
ANDALUSIA/OPP  MOSUNNY   89  69  51 NW10      29.96F
6HR MIN TEMP:  73; 6HR MAX TEMP:  91;

ANDALUSIA*     NOT AVBL
FLORALA APT    LGT RAIN  85  70  60 CALM      29.98F
6HR MIN TEMP:  70; 6HR MAX TEMP:  87; 6HR PCP: TRACE;

FLORALA*       NOT AVBL

$$

FLZ001>006-281900-
WESTERN FLORIDA PANHANDLE

CITY           SKY/WX    TMP DP  RH WIND       PRES   REMARKS
PENSACOLA      CLOUDY    83  72  69 E6        29.97S
6HR MIN TEMP:  73; 6HR MAX TEMP:  87; 6HR PCP: TRACE;

NAS PENSACOLA  NOT AVBL
MILTON         PTSUNNY   85  72  65 W7        29.96F
6HR MIN TEMP:  70; 6HR MAX TEMP:  86;

WHTNG S FIELD  PTSUNNY   90  73  57 VRB7      29.96F HX  98
6HR MIN TEMP:  72; 6HR MAX TEMP:  90;



CITY           SKY/WX    TMP DP  RH WIND       PRES   REMARKS
WALNUT HILL*   NOT AVBL
JAY*           NOT AVBL
DUKE FIELD     PTSUNNY   88  69  52 W1        29.95F
CRESTVIEW      PTSUNNY   90  69  50 VRB7      29.97F
6HR MIN TEMP:  69; 6HR MAX TEMP:  90;

VALPARAISO     PTSUNNY   88  72  58 SE14      29.95F HX  95
6HR MIN TEMP:  72; 6HR MAX TEMP:  88;

DESTIN         SUNNY     89  75  63 VRB6      29.96F HX  99
6HR MIN TEMP:  78; 6HR MAX TEMP:  89;


$$

MSZ076-079-281900-
INTERIOR SOUTHEAST MISSISSIPPI

CITY           SKY/WX    TMP DP  RH WIND       PRES   REMARKS
LEAKESVILLE*   NOT AVBL
AGRICOLA*      NOT AVBL

$$

MARINE OBSERVATIONS

STATION/POSITION TIME  TEMP    WIND        PRES    WAVE
                       AIR SEA DIR/SP/G            HT/PER
                 (UTC) (F)     (DEG/KT/KT) (MB)    (FT/S)
PASCAGOULA       1700   84     340/  4/  6 1015.6F
PETIT BOIS ISLND 1700   83     330/  2/  4 1016.4F
GRAND BAY        1600   82      80/  3     1017.0S
CEDAR POINT      1700   81      60/  4     1015.6F
E DAUPHIN ISLAND 1700   81     360/  5/  6 1015.3F
MIDDLE BAY LIGHT 1700   84     350/  5     1015.9R
USCG MOBILE BAY  1700   84 85  320/  5/  6 1015.9F
STATE DOCKS      1700   92 86              1015.3F
MEAHER PARK      1700   83     270/  5     1014.9F
WEEKS BAY        1600   86                   N/A
FORT MORGAN      1700   82     360/  6/  7 1015.1F
12 S ORANGE BCH  1750   83 87  220/  2/  4 1015.2F   1
PENSACOLA BAY    1700   85 85  200/  5/  6 1015.2F
64 S DAUPHIN ISL 1700   83 85  290/  4/  6 1015.5S
67 S FORT MORGAN 1730   85     280/  4     1015.6F

$$

SELECTED LOCATIONS ACROSS THE REGION

CITY           SKY/WX    TMP DP  RH WIND       PRES   REMARKS
NEW ORLEANS    MOSUNNY   88  63  43 VRB6      30.01F
GULFPORT       SUNNY     87  64  46 NW8       29.98F
PASCAGOULA AP  MOSUNNY   88  70  55 MISG      29.98F
PASCAGOULA*    NOT AVBL
HATTIESBURG    SUNNY     85  60  42 W6        30.00F
LAUREL         SUNNY     84  57  39 SW6       30.01F
MERIDIAN       SUNNY     88  47  24 W9        29.98F
JACKSON        SUNNY     83  46  27 W6        30.01S
MONTGOMERY     SUNNY     88  53  30 W10       29.96F
TROY           MOSUNNY   87  65  47 W8        29.97F
KINSTON*       NOT AVBL
GENEVA*        NOT AVBL
ASHFORD*       NOT AVBL
DOTHAN         MOSUNNY   86  69  56 W6        29.99F
PANAMA CITY    MOSUNNY   88  72  58 S10       29.95F

$$




USA.gov is the U.S. government's official web portal to all federal, state and local government web resources and services.